Theta_e
311 311 312 312 312 312 312 313 314 314 314 314 315 316 317 318 319 311 306 312 316 320 318 312 311 310 309 304 309 309 297 294 296 297 299 305 305 310 313 311 312 315 318 326 333
311 311 312 312 311 311 312 313 313 313 313 314 315 316 317 318 312 306 313 318 319 319 311 308 306 308 305 303 303 302 297 296 301 302 301 304 305 307 308 308 310 312 318 326 331
311 311 311 312 311 311 312 313 313 313 313 314 314 316 317 316 307 305 314 317 318 316 312 310 309 306 302 304 301 300 295 299 299 300 301 300 301 306 305 303 309 310 314 318 327
310 311 311 311 311 312 312 312 313 313 313 314 314 316 317 311 295 308 315 316 316 314 311 308 307 303 300 298 302 296 300 300 301 302 301 299 302 299 301 305 311 313 316 316 318
311 311 310 310 311 311 312 312 312 313 313 314 315 316 313 303 303 312 314 313 312 310 307 305 303 302 298 299 300 298 299 300 302 302 301 302 299 299 300 303 309 312 314 314 317
311 310 311 311 310 311 311 312 312 313 313 314 315 316 309 298 311 313 312 311 309 308 307 307 304 304 300 299 298 300 300 300 301 301 301 299 300 301 302 305 303 305 309 312 314
311 311 311 311 311 311 311 312 312 312 312 314 314 313 306 302 312 313 311 310 311 309 305 308 308 304 303 299 303 300 294 298 300 300 299 301 296 297 303 304 303 303 305 310 313
311 311 311 311 310 310 311 312 312 312 313 313 315 312 302 311 313 310 311 309 311 311 309 309 309 304 301 303 299 295 296 292 299 300 300 298 291 299 304 303 301 303 305 309 315
311 311 311 310 310 310 311 310 310 311 312 315 311 307 299 309 306 309 310 306 308 310 310 310 308 302 301 295 293 294 287 290 292 300 298 296 292 299 303 302 301 304 308 312 316
311 310 310 310 309 310 309 308 308 311 313 311 309 301 302 299 305 307 310 309 305 306 305 304 303 298 298 293 284 286 287 289 289 294 294 292 291 298 301 300 300 302 304 307 309
311 310 309 309 309 310 307 304 300 300 302 297 298 298 300 305 308 306 308 306 305 302 295 299 295 291 293 295 293 291 290 289 293 296 292 292 293 295 298 298 298 300 299 302 305
310 309 309 308 309 307 308 300 299 300 293 299 299 300 303 304 299 303 308 300 298 294 296 295 291 294 295 296 293 292 290 288 292 295 292 293 290 294 296 296 296 296 298 300 303
310 309 308 308 308 305 303 301 306 305 294 295 299 299 300 302 298 299 304 301 296 293 293 291 292 295 293 294 292 292 289 288 287 293 294 291 287 288 293 295 297 297 298 300 301
310 308 307 307 302 303 297 302 306 306 291 289 294 297 300 300 296 303 304 301 296 292 293 292 294 292 292 292 293 288 295 292 291 288 286 290 283 285 288 290 293 293 293 297 299
310 307 306 303 301 298 300 303 305 302 284 290 293 302 299 296 297 298 304 301 294 293 293 290 290 290 290 291 293 290 295 293 292 290 289 287 285 285 290 287 288 291 294 298 299
309 307 306 303 304 303 304 305 302 287 283 287 293 292 293 295 295 298 297 300 299 294 293 292 296 293 292 294 295 296 294 293 293 290 285 285 285 284 285 286 287 291 296 298 299
309 307 304 303 299 305 305 300 286 284 286 286 288 291 291 290 292 293 292 292 291 287 287 291 291 294 294 292 295 294 291 286 283 284 280 287 284 284 288 290 291 292 296 299 299
308 306 303 304 305 304 300 290 282 286 285 289 289 289 287 290 290 291 290 289 292 290 288 285 284 290 294 291 288 290 289 284 277 279 281 286 280 284 291 292 293 295 295 297 299
307 304 303 304 303 302 294 284 287 288 287 287 288 286 287 289 289 289 288 288 290 291 286 285 285 292 292 293 292 289 286 290 285 283 282 283 286 289 292 292 293 293 293 294 294
301 299 298 304 303 299 288 284 285 286 289 290 284 287 285 286 286 287 287 290 289 292 293 289 283 289 291 294 293 290 292 285 288 279 277 280 281 282 287 289 291 291 292 292 293
300 293 299 303 301 293 285 286 285 287 291 288 288 285 286 286 288 287 286 289 291 291 293 291 286 287 290 288 286 289 288 288 287 285 279 278 280 289 289 289 289 290 291 291 291
297 286 299 301 287 285 284 285 285 287 291 289 290 288 287 287 286 286 286 288 293 292 287 291 287 282 285 289 290 290 288 287 282 281 283 282 282 292 292 290 290 289 290 291 292
290 289 298 297 283 283 283 282 285 286 288 288 287 289 290 287 284 287 288 292 293 291 289 291 285 281 282 286 289 287 288 289 288 286 282 281 282 292 292 289 289 289 290 291 292
290 284 288 291 290 286 283 284 283 288 288 289 288 290 288 286 288 285 286 290 291 292 292 293 286 283 280 282 285 283 286 288 287 283 283 283 284 288 289 288 289 289 290 291 291
290 286 288 281 283 284 285 285 282 281 286 289 287 287 286 284 285 284 288 288 289 292 291 290 282 283 285 285 284 284 284 286 285 287 282 285 286 289 290 289 290 291 291 290 290
285 285 289 287 288 284 285 284 282 284 284 284 285 287 288 285 286 284 287 287 286 290 289 289 283 282 279 285 283 279 283 284 285 286 287 286 287 293 293 292 290 290 290 289 289
294 294 293 288 286 284 284 284 283 286 286 288 287 286 286 288 290 289 291 290 289 288 287 285 283 279 279 278 277 275 278 283 285 288 289 284 290 292 289 289 289 290 290 289 290
Wind_Speed
6 7 8 9 10 11 12 12 13 13 14 14 15 15 15 15 16 2 7 7 11 16 19 12 6 6 3 1 3 4 7 10 14 13 14 12 11 13 11 15 18 12 9 7 6
5 6 8 10 11 11 11 12 13 13 14 14 14 13 14 14 4 5 5 9 14 12 12 13 12 11 0 1 1 6 8 7 11 13 10 15 15 13 16 14 15 16 11 4 7
5 7 8 9 10 11 12 13 13 13 13 13 14 13 13 10 4 5 5 10 10 9 8 8 9 6 3 2 2 3 7 13 10 10 13 16 18 16 19 22 17 13 7 4 5
6 7 8 9 10 11 12 13 14 14 14 14 13 11 11 5 2 5 6 10 8 8 7 8 8 5 4 4 3 7 10 9 14 15 15 17 19 24 24 22 18 11 11 12 11
5 6 7 8 9 11 12 13 14 14 14 13 11 10 7 3 5 4 4 3 4 6 7 9 10 7 6 6 9 12 10 10 12 15 18 18 20 23 27 24 22 18 16 15 15
6 6 7 9 11 12 13 14 14 14 14 11 8 9 4 2 2 3 5 3 4 5 5 6 6 6 4 8 7 10 16 18 17 19 19 20 21 21 19 18 23 24 22 19 17
6 7 8 10 11 13 14 14 14 13 9 6 3 5 4 6 1 5 1 3 3 5 5 3 4 5 9 6 7 14 14 15 8 5 10 10 16 20 22 22 23 22 23 17 11
5 7 8 10 12 13 15 15 15 10 5 1 2 4 2 2 5 2 2 1 1 2 3 2 2 3 2 8 7 6 6 13 7 19 7 4 14 17 14 13 13 15 16 15 9
6 6 8 10 12 14 16 16 9 4 2 4 4 4 4 2 2 3 2 3 3 1 1 2 3 3 2 8 5 3 11 18 13 17 11 5 12 11 11 10 10 11 13 12 8
6 6 7 10 12 15 16 8 0 4 4 3 2 4 2 2 4 4 2 3 4 2 4 5 5 5 5 7 7 11 12 14 20 11 6 13 12 10 6 10 10 10 10 9 8
6 5 6 9 12 14 9 3 5 4 2 3 3 2 1 6 2 3 2 3 4 6 5 2 6 4 9 8 8 11 15 17 16 10 3 12 9 4 8 13 14 12 11 10 8
6 5 5 8 12 11 5 2 3 3 3 1 1 2 2 4 3 1 5 4 4 7 4 5 6 6 7 8 6 9 11 9 10 4 3 11 6 9 11 13 12 12 13 10 9
8 5 4 8 9 3 5 4 1 1 4 2 1 1 1 3 2 2 6 2 4 5 5 6 5 6 7 8 8 7 4 5 5 5 8 6 1 6 9 12 11 15 13 11 11
9 5 3 8 3 1 2 2 2 2 2 3 3 2 2 2 4 1 3 4 4 4 6 6 2 6 8 6 7 7 4 11 8 4 2 2 1 4 5 10 16 16 14 11 10
9 6 0 4 2 1 3 1 2 4 3 4 3 2 2 4 3 4 1 3 5 3 3 4 6 9 8 5 9 7 16 11 4 3 3 8 3 3 4 8 8 11 11 6 5
10 7 4 2 1 4 1 3 4 3 5 4 1 1 3 1 1 3 1 3 2 5 6 11 4 4 5 13 8 12 10 3 6 3 2 9 6 4 7 6 7 7 6 8 15
11 8 4 0 1 4 3 3 3 3 2 3 3 2 3 1 2 3 2 2 3 4 2 4 7 2 3 9 3 13 12 2 4 1 4 9 5 3 10 8 9 11 12 7 7
13 10 2 1 3 3 3 1 2 2 3 2 3 3 3 2 0 1 2 3 1 3 6 4 4 4 7 3 4 8 5 4 5 5 4 7 8 8 10 7 6 7 6 8 7
15 3 3 3 2 3 3 2 3 2 3 7 4 3 1 3 4 2 2 2 1 3 3 4 4 0 0 2 5 5 4 2 4 1 2 3 3 3 7 9 10 10 10 11 11
7 5 3 3 2 4 2 4 2 3 4 3 6 4 4 4 4 3 3 2 2 2 3 2 7 2 2 3 3 4 4 1 3 4 2 4 3 5 6 7 9 10 12 13 13
6 4 3 2 3 2 3 5 4 4 3 4 4 4 4 4 4 3 1 3 3 3 3 3 3 0 4 4 4 1 1 2 3 4 4 1 4 5 6 5 7 8 10 11 12
6 3 3 2 3 1 3 5 2 6 5 4 3 3 5 5 5 4 3 1 2 1 0 3 5 5 2 1 1 1 2 3 3 2 3 4 5 5 7 6 6 7 7 8 9
6 3 1 3 5 5 0 1 2 5 6 6 6 5 3 5 4 5 3 3 1 1 2 1 1 4 2 3 3 1 1 2 4 3 3 3 6 6 8 8 6 6 5 6 7
5 6 3 4 1 3 6 4 5 5 3 4 3 4 5 6 5 1 3 3 2 2 3 1 3 6 5 4 3 3 2 2 4 3 1 4 9 12 11 10 9 7 4 5 6
2 5 6 8 9 8 9 7 8 7 4 6 6 11 10 7 8 5 5 4 4 4 3 3 3 3 9 7 6 6 7 7 6 5 5 3 8 14 14 13 11 8 6 5 5
8 6 4 5 8 18 12 10 12 6 11 6 5 14 12 7 7 4 7 7 5 7 5 4 2 2 4 6 7 6 11 10 10 9 8 4 5 11 12 11 11 10 8 6 6
3 4 4 10 10 13 10 10 17 12 10 5 14 7 13 13 3 4 4 3 1 5 9 3 3 2 3 4 5 7 13 15 8 8 9 8 7 13 13 13 12 9 6 6 5
Wind_Direction
19 9 1 357 355 353 351 350 349 349 347 344 342 341 340 340 312 263 34 3 340 337 309 337 356 353 276 319 292 286 252 261 275 281 296 278 263 273 267 283 267 258 254 15 96
2 354 350 348 348 346 346 344 343 343 341 338 335 336 335 334 302 56 43 347 341 339 346 352 356 344 51 2 237 262 257 302 3 340 332 320 305 283 282 273 257 243 231 203 134
343 344 343 341 340 338 340 340 338 336 334 330 329 327 325 312 244 41 37 351 346 315 340 321 325 335 343 319 18 310 263 327 315 336 329 311 295 283 271 259 254 270 327 312 185
333 335 338 337 335 335 335 334 333 332 329 326 322 319 322 275 357 41 14 344 332 320 335 359 353 3 333 332 16 287 274 298 303 301 309 293 294 285 273 268 275 296 295 299 264
313 322 330 329 327 328 328 329 329 327 323 320 315 316 285 214 64 71 326 5 297 336 9 6 13 345 346 325 310 258 288 301 294 290 286 285 274 275 269 277 273 266 267 286 283
301 311 319 324 324 324 325 324 323 321 319 314 308 309 279 231 45 6 351 316 344 332 4 359 8 355 298 308 296 333 307 300 293 282 278 278 281 278 273 266 258 261 260 264 288
292 298 309 317 320 321 321 318 316 315 313 309 289 293 259 67 325 340 314 346 328 331 323 358 349 336 347 312 334 298 300 299 276 305 300 310 275 259 263 260 263 270 252 253 287
275 293 301 313 318 320 318 316 314 310 303 236 238 284 45 120 337 289 322 88 295 309 285 324 305 321 270 313 291 294 263 333 329 323 282 274 303 313 357 323 275 276 266 267 291
254 287 300 311 318 319 318 317 309 298 231 158 243 299 115 142 254 359 308 305 311 146 233 258 260 294 291 331 326 141 325 319 321 336 352 316 297 357 351 334 320 340 326 332 320
240 274 299 313 320 322 322 322 105 203 163 203 244 233 133 354 324 314 250 279 255 200 199 228 242 280 226 358 334 313 311 306 314 321 280 279 256 298 2 1 349 360 346 330 354
227 264 296 316 321 328 319 208 186 183 229 19 22 334 339 338 193 193 339 259 239 243 289 160 270 335 337 339 317 293 302 307 314 323 281 250 221 273 29 23 7 360 4 345 24
216 245 291 313 323 326 285 34 53 7 263 120 277 275 285 330 257 113 305 259 238 281 300 217 257 10 323 313 303 311 295 307 306 340 249 54 43 41 40 29 23 9 9 0 27
200 221 283 309 321 299 53 70 70 262 275 116 35 307 3 294 314 356 335 300 280 261 299 284 358 332 315 317 341 328 246 297 279 289 72 7 59 356 11 2 21 26 1 12 25
189 205 286 315 269 82 61 111 237 302 270 131 173 124 207 272 233 340 359 317 228 306 314 280 316 309 318 317 344 314 352 326 326 256 324 12 315 29 336 356 18 15 9 354 40
182 175 81 342 86 210 77 229 225 242 321 127 135 34 252 262 348 144 68 230 283 310 277 53 312 326 309 353 326 281 325 306 309 344 238 8 313 26 334 359 1 13 14 275 47
175 167 163 205 171 90 164 168 236 42 243 146 138 266 237 188 180 316 238 226 315 284 241 277 326 279 310 308 283 290 294 228 237 242 157 360 333 53 3 329 315 326 305 357 40
168 159 204 238 94 142 178 222 26 199 34 186 150 184 289 307 195 343 15 37 322 313 248 253 227 299 287 313 156 341 339 242 227 347 37 356 26 47 336 350 320 307 315 350 56
157 148 134 41 135 178 224 81 218 106 218 113 143 141 260 322 249 326 237 233 97 304 291 324 202 344 16 22 317 320 353 10 326 350 13 22 12 9 352 7 334 284 29 18 51
142 154 180 150 175 225 220 138 231 142 153 162 151 183 199 201 275 241 264 268 263 327 294 309 229 232 156 324 306 356 41 7 297 297 248 54 137 115 22 35 47 38 50 46 46
160 179 150 150 226 230 116 242 200 144 147 209 217 200 192 200 238 217 200 133 179 233 306 38 291 75 345 244 191 326 343 188 203 302 9 94 60 81 40 30 34 35 36 37 43
151 183 98 232 244 184 208 226 207 192 181 202 212 174 225 195 211 236 220 163 218 149 263 313 274 84 253 28 21 72 49 333 280 318 332 152 101 38 85 52 49 44 42 43 49
143 155 121 188 161 256 208 201 263 168 167 225 252 233 229 201 218 227 272 296 157 128 249 39 316 282 348 21 349 344 21 293 291 70 18 326 111 116 102 92 86 71 49 49 50
122 114 76 243 196 201 186 238 246 170 192 186 210 211 195 213 243 221 204 83 124 246 358 107 236 289 214 178 196 323 22 307 279 259 224 262 129 141 132 132 116 96 75 53 44
130 139 140 217 175 193 167 204 205 213 201 184 179 159 176 210 209 158 228 167 172 220 73 287 309 269 312 357 343 273 261 276 288 269 152 251 135 164 164 159 150 140 118 68 53
143 172 180 174 215 200 197 178 163 176 193 216 199 218 189 205 196 210 191 176 204 157 152 250 258 251 284 281 272 273 272 267 254 266 256 69 193 176 174 168 162 146 138 125 85
148 152 181 163 168 180 194 205 189 168 157 198 208 203 205 205 192 192 197 203 203 182 187 177 231 322 267 248 259 272 265 257 250 254 257 255 205 161 164 152 153 160 156 128 102
182 122 153 160 161 172 207 194 197 172 200 179 196 180 205 215 83 45 58 9 239 178 188 182 178 181 254 325 300 257 239 218 216 212 215 200 187 165 166 172 165 165 160 128 96